Flag for U.S.A. Weather past 2 weeks in Passaic, New Jersey, U.S.A.

Now
32 °F

Overcast.


Feels Like: 26 °F
Forecast: 19 / 35 °F
Wind: 7 mph from South

Location: Teterboro Airport

Current Time: Jan 29, 2015 at 10:12:39 PM

Latest Report: Jan 29, 2015 at 9:51 PM


Visibility: 10 mi

Pressure: 30.05 "Hg

Humidity: 69%

Dew point: 23 °F

Location of PassaicLocation

Historic Weather in Passaic — Graph

°F

Passaic temperature yesterday

Maximum temperature yesterday: 33 °F (at 3:51 PM)
Minimum temperature yesterday: 15 °F (at 3:51 AM)
Average temperature yesterday: 24 °F

Past Weeks' High & Low Weather Summary

 TemperatureHumidityPressure
High42 °F (Jan 16, 12:51 PM)97% (Jan 18, 1:51 PM)30.40 "Hg (Jan 18, 1:51 PM)
Low14 °F (Jan 29, 3:51 AM)26% (Jan 28, 4:51 PM)29.28 "Hg (Jan 24, 3:51 PM)
Average30 °F58%29.98 "Hg
* Reported Jan 14 8:51 PM — Jan 29 8:51 PM, Passaic, Weather by CustomWeather, © 2014

Note: Actual official high and low records may vary slightly from our data, if they occured in-between our weather recording intervals... More about our weather records

Advertising

Passaic weather history for previous 24 hours

 ConditionsComfort  
Time TempWeatherWind HumidityBarometerVisibility
8:51 PM
Jan 29
33 °FMostly cloudy.3 mph63%30.04 "Hg10 mi
7:51 PM32 °FOvercast.8 mph66%30.08 "Hg10 mi
6:51 PM33 °FOvercast.8 mph66%30.09 "Hg10 mi
5:51 PM31 °FOvercast.5 mph67%30.13 "Hg10 mi
4:51 PM31 °FOvercast.6 mph59%30.13 "Hg10 mi
3:51 PM30 °FPartly sunny.9 mph47%30.15 "Hg10 mi
2:51 PM31 °FPartly sunny.9 mph47%30.18 "Hg10 mi
1:51 PM31 °FPassing clouds.6 mph41%30.19 "Hg10 mi
12:51 PM30 °FSunny.6 mph40%30.22 "Hg10 mi
11:51 AM28 °FSunny.No wind35%30.27 "Hg10 mi
10:51 AM27 °FSunny.No wind39%30.31 "Hg10 mi
9:51 AM24 °FSunny.3 mph38%30.32 "Hg10 mi
8:51 AM20 °FSunny.5 mph41%30.34 "Hg10 mi
7:51 AM17 °FSunny.No wind49%30.34 "Hg10 mi
6:51 AM15 °FClear.3 mph51%30.33 "Hg10 mi
5:51 AM16 °FClear.6 mph49%30.32 "Hg10 mi
4:51 AM16 °FClear.5 mph51%30.31 "Hg10 mi
3:51 AM14 °FClear.No wind58%30.32 "Hg10 mi
2:51 AM20 °FClear.No wind41%30.32 "Hg10 mi
1:51 AM21 °FClear.6 mph40%30.29 "Hg10 mi
12:51 AM22 °FClear.6 mph38%30.29 "Hg10 mi
11:51 PM
Jan 28
22 °FClear.6 mph38%30.28 "Hg10 mi
10:51 PM24 °FClear.5 mph35%30.27 "Hg10 mi
Weather by CustomWeather, © 2014

See weather overviewHow to use our weather pages